www.pogodaiklimat.ru
ПОГОДА в Бристоль / Джонсон / Кингспорт
Время
и дата
22:53 13.07
23:53 13.07
00:53 14.07
01:53 14.07
02:53 14.07
03:53 14.07
04:53 14.07
05:53 14.07
06:53 14.07
07:53 14.07
08:53 14.07
09:53 14.07
10:53 14.07
11:53 14.07
12:53 14.07
13:53 14.07
14:53 14.07
15:53 14.07
16:53 14.07
17:53 14.07
18:53 14.07
19:53 14.07
20:53 14.07
21:53 14.07
22:53 14.07
23:53 14.07
00:53 15.07
01:53 15.07
02:53 15.07
03:53 15.07
04:53 15.07
05:53 15.07
06:53 15.07
07:53 15.07
08:53 15.07
09:53 15.07
10:53 15.07
11:53 15.07
12:53 15.07
13:53 15.07
14:53 15.07
15:53 15.07
16:53 15.07
17:53 15.07
18:53 15.07
19:53 15.07
20:53 15.07
21:53 15.07
Ветер
(напр.,м/с)
Видим. Явления Облачность Т
(С)
Тd
(С)
f
(%)
Тe
(С)
Тes
(С)
Комфортность P
(гПа)
Po
(гПа)
Тmin
(С)
Tmax
(С)
R
(мм)
R24
(мм)
S
(см)
штиль 0 16 км 5/0 3300 m
[Ac]
+22.8 +17.2 71 +28 +28 душно 1020.0 967.6
С 2 16 км 5/0 3300 m
[Ac]
+21.1 +17.8 81 +25 +25 комфорт 1020.1 968.0
штиль 0 16 км 5/0 3000 m
[Ac]
+20.6 +17.2 81 +24 +24 комфорт 1019.9 967.6 +20.6 +31.1
штиль 0 16 км 5/0 3000 m
[Ac]
+20.0 +17.8 87 +23 +23 комфорт 1019.8 967.6
штиль 0 16 км 5/0 3000 m
[Ac]
+20.0 +17.8 87 +23 +23 комфорт 1019.3 967.3
штиль 0 16 км 5/0 3900 m
[Ac]
+18.9 +17.2 90 +20 +20 1019.5 967.3
штиль 0 16 км ясно +18.3 +17.2 93 +19 +19 1019.5 967.3
штиль 0 16 км 2/0 3600 m
[Ac]
+18.3 +17.2 93 +19 +19 1020.0 967.6
В 2 16 км ясно +20.6 +17.8 84 +25 +25 комфорт 1020.3 968.0 +17.8 +20.6
нст 2 16 км ясно +23.3 +18.9 76 +30 +32 очень
душно
1020.5 968.3
штиль 0 16 км ясно +26.1 +19.4 67 +32 +39 очень
душно
1020.2 968.0
штиль 0 16 км ясно +29.4 +18.9 53 +35 +48 очень
душно
1020.3 968.0
нст 2 16 км 2/2 1500 м +31.7 +18.9 47 +37 +49 очень
душно
1019.9 967.6
СЗ 4 16 км 2/2 1200 м +32.8 +17.8 41 +37 +47 очень
душно
1019.2 967.3
З 4
{8}
16 км 2/2 1800 м +33.9 +16.7 36 +37 +48 очень
душно
1018.5 966.4 +20.6 +34.4
З 4 16 км 5/5 1950 м +34.4 +16.7 35 +37 +44 очень
душно
1017.8 965.7
З 3 16 км 5/0 2100 m
[Ac]
+34.4 +17.2 36 +38 +48 очень
душно
1016.9 965.1
СЗ 3 16 км 5/0 2250 m
[Ac]
+35.0 +16.7 34 +38 +46 очень
душно
1016.3 964.4
штиль 0 16 км 5/0 2400 m
[Ac]
+33.9 +16.1 35 +37 +45 очень
душно
1016.2 964.1
З 4 16 км 2/0 2400 m
[Ac]
+34.4 +14.4 30 +36 +39 душно 1016.1 964.1
СЗ 4 16 км 2/0 2400 m
[Ac]
+33.3 +12.2 28 +34 +35 очень
жарко
1016.2 964.4 +33.3 +35.6
СЗ 2 16 км 2/0 7500 m
[Ci]
+30.6 +13.9 36 +32 +32 жарко 1016.1 964.1
штиль 0 16 км 2/0 7500 m
[Ci]
+25.0 +16.1 58 +28 +28 жарко 1016.5 964.4
штиль 0 16 км 2/0 7500 m
[Ci]
+25.6 +16.1 56 +29 +29 душно 1016.3 964.4
штиль 0 16 км 2/0 7500 m
[Ci]
+21.7 +16.1 70 +25 +25 комфорт 1016.4 964.4
штиль 0 16 км ясно +21.7 +16.1 70 +25 +25 комфорт 1016.3 964.4
С 2 16 км ясно +20.6 +16.7 78 +25 +25 комфорт 1016.2 964.4 +19.4 +33.3
штиль 0 16 км ясно +19.4 +16.7 84 +21 +21 комфорт 1015.8 964.1
штиль 0 16 км ясно +18.9 +16.7 87 +20 +20 1016.0 964.1
штиль 0 16 км ясно +17.8 +16.7 93 +18 +18 1016.1 964.1
штиль 0 16 км ясно +17.8 +16.7 93 +18 +18 1016.6 964.4
штиль 0 16 км 5/0 3600 m
[Ac]
+17.8 +16.7 93 +18 +18 1017.2 965.1
штиль 0 16 км 8/0 3600 m
[Ac Ci]
+20.6 +17.2 81 +24 +24 комфорт 1017.4 965.4 +17.2 +21.7
штиль 0 16 км 8/0 7500 m
[Ci]
+22.8 +17.8 73 +28 +31 душно 1017.9 965.7
штиль 0 16 км 8/0 6000 m
[Ac]
+26.1 +18.9 65 +31 +35 очень
душно
1017.4 965.4
ЮЗ 2 16 км 8/0 6000 m
[Ac]
+27.8 +18.9 58 +33 +37 очень
душно
1017.4 965.4
ЮЗ 4 16 км 8/0 6000 m
[Ac]
+30.6 +20.0 53 +37 +41 очень
душно
1017.0 965.1
нст 2 16 км 8/2 1290 m
[Ac Ci]
+31.7 +20.0 50 +38 +47 очень
душно
1016.2 964.1
З 4 16 км 8/2 1410 m
[Ac Ci]
+32.8 +19.4 45 +38 +45 очень
душно
1015.2 963.2 +21.1 +33.9
З 5 16 км 5/2 1410 m
[Ci]
+33.3 +20.0 46 +40 +48 очень
душно
1014.6 962.8
ЮЗ 5
{8}
16 км 5/0 5100 m
[Ac Ci]
+33.9 +18.9 41 +39 +47 очень
душно
1013.7 961.9
З 3 16 км 5/2 1800 m
[Ac Ci]
+35.0 +18.3 37 +39 +47 очень
душно
1013.0 961.2
З 4 16 км 5/0 5400 m
[Ac Ci]
+35.0 +18.3 37 +39 +43 очень
душно
1012.4 960.6
З 4 16 км 5/0 4200 m
[Ac Ci]
+33.9 +18.3 40 +38 +41 очень
душно
1012.2 960.6
З 3 16 км 2/0 4200 m
[Ac Ci]
+32.8 +18.3 42 +37 +39 очень
душно
1012.5 960.9 +32.8 +35.0
ЮЗ 2 16 км 2/0 7500 m
[Ci]
+30.6 +18.9 50 +36 +36 очень
душно
1012.9 961.2
штиль 0 16 км 2/0 7500 m
[Ci]
+26.7 +19.4 64 +32 +32 очень
душно
1013.1 961.2
ЮВ 2 16 км ясно +26.1 +20.0 69 +32 +32 очень
душно
1012.7 960.9
Местоположение метеостанции Tri-City Regional Airport: широта 36.4797 долгота -82.3989 высота над уровнем моря 463 м.
В архиве по умолчанию представлена погода в Бристоль / Джонсон / Кингспорт за последние 1-2 суток. Обновление информации о фактической погоде в базе происходит ежечасно! Архивные данные за месяц целиком и за предыдущие месяцы Вы можете получить, выбрав интересующий диапазон дат из раскрывающегося списка и нажав кнопку "Ввод!".
Внимание! Архив погоды МЕТАР в базе сайта по станциям, не включенным в климатический монитор, хранится не более 60 дней. Нет смысла пытаться выбрать более раннюю дату.
*Определитесь, кто Вы:
Внимание! Время в таблицах - местное (без учета летнего времени). Для получения всемирного времени необходимо вычесть поправку, которая равна -5 ч.
Смотрите также архив погоды в соседних городах и на ближайших метеорологических станциях:
Партнеры нашего сайта:      
Пояснения к столбцам:
  • Ветер - указаны скорость ветра в м/с - средняя за 10 мин, порывы в срок и между сроками (в фигурных скобках) и направление, откуда дует ветер: С - северный,
  • СВ - северо-восточный, В - восточный, ЮВ - юго-восточный, Ю - южный, ЮЗ - юго-западный, З - западный, СЗ - северо-западный.
  • Видимость - горизонтальная дальность видимости в метрах или километрах. При видимости от 1 до 10 км при отсутствии осадков обычно наблюдается дымка, при ухудшении видимости до 1 км и менее - туман. В сухую погоду видимость может ухудшаться дымом, пылью или мглою.
  • Явления - указаны атмосферные явления, наблюдавшиеся в срок или в последний час перед сроком; фигурными скобками обозначены явления, наблюдавшиеся между сроками (за 1-3 часа до срока); квадратными скобками обозначены град или гололедные отложения с указанием их диаметра в мм.
  • Облачность - указаны через наклонную черту общая и нижняя облачность в баллах и высота нижней границы облаков в метрах; квадратными скобками обозначены формы облаков: Ci - перистые, Cs - перисто-слоистые, Cc - перисто-кучевые, Ac - высококучевые, As - высокослоистые, Sc - слоисто-кучевые, Ns - слоисто-дождевые, Cu - кучевые, Cb - кучево-дождевые. Подробнее классификацию облаков см. в Атласе облаков (PDF).
  • T - Температура воздуха - температура, измеренная на высоте 2 м над землей.
  • Td - Температура точки росы - температура, при понижении до которой содержащийся в воздухе водяной пар достигнет насыщения.
  • f - Относительная влажность воздуха - влажноcть воздуха, измеренная на высоте 2 м над землей.
  • Te - Эффективная температура - температура, которую ощущает одетый по сезону человек в тени. Характеристика душности погоды. При расчете учитывается влияние влажности воздуха и скорости ветра на теплоощущения человека.
  • Tes - Эффективная температура на солнце - температура, которую ощущает человек, с поправкой на солнечный нагрев. Характеристика знойности погоды. Зависит от высоты солнца над горизонтом, облачности и скорости ветра. Ночью, в пасмурную погоду, а также при ветре 12 м/с и более поправка равна нулю.
  • P - Атмосферное давление - приведенное к уровню моря атмосферное давление.
  • Po - Атмосферное давление - измеренное на уровне метеостанции атмосферное давление.
  • Tmin - Минимальная температура - минимум температуры воздуха на высоте 2 м над землей.
  • Tmax - Максимальная температура - максимум температуры воздуха на высоте 2 м над землей.
  • R - Количество осадков - Количество выпавших осадков за период времени, мм. При наведении курсора мыши на число - период времени, за который выпало указанное количество осадков.
  • R24 - Количество осадков - Количество выпавших осадков за 24 часа, мм.
  • S - Снежный покров - Высота снежного покрова, см. При наведении курсора мыши на число - состояние снежного покрова и степень покрытия местности в баллах.